Perth, Australia

5:18 PM AWST on February 21, 2017 (GMT +0800)
Perth International

Weather History for YPPH - April, 2014

Change the Weather History Date:

Friday, April 4, 2014

  Actual Average Record
Temperature  
Mean Temperature 69 °F -  
Max Temperature 86 °F 76 °F 97 °F (2013)
Min Temperature 52 °F 55 °F 50 °F (2006)
Cooling Degree Days 4    
Growing Degree Days 19 (Base 50)    
Moisture  
Dew Point 41 °F    
Average Humidity 34    
Maximum Humidity 77    
Minimum Humidity 11    
Precipitation  
Precipitation 0.00 in 0.07 in - ()
Sea Level Pressure  
Sea Level Pressure 29.99 in    
Wind  
Wind Speed 9 mph ()    
Max Wind Speed 18 mph    
Max Gust Speed -    
Visibility 13.1 miles    
Events Rain    
Averages and records for this station are not official NWS values.
T = Trace of Precipitation, MM = Missing Value Source: Averaged Metar Reports

Daily Weather History Graph

Daily Weather History Graph

Search for Another Location

Airport or City:

Trip Planner

Search our weather history database for the weather conditions in past years. The results will help you decide how hot, cold, wet, or windy it might be!

Date:

Astronomy

Apr. 04, 2014 Rise Set
Actual Time 6:29 AM AWST 6:08 PM AWST
Civil Twilight 6:04 AM AWST 6:33 PM AWST
Nautical Twilight 5:36 AM AWST 7:01 PM AWST
Astronomical Twilight 5:08 AM AWST 7:29 PM AWST
Moon 10:41 AM AWST (4/4) 9:25 PM AWST (4/4)
Length of Visible Light 12h 28m
Length of Day
11h 39m
Waxing Crescent, 21% of the Moon is Illuminated
Apr 4
Waxing Crescent
Apr 7
First Quarter
Apr 15
Full
Apr 22
Last Quarter
Apr 29
New

Hourly Weather History & Observations

Time (AWST) Temp. Dew Point Humidity Pressure Visibility Wind Dir Wind Speed Gust Speed Precip Events Conditions
12:00 AM 54 °F 46 °F 67% 30.09 in 19 mi WNW 5.8 mph - -   Partly Cloudy
12:00 AM 53.6 °F 46.4 °F 77% 30.06 in - WNW 5.8 mph - N/A   Clear
12:30 AM 53.6 °F 44.6 °F 72% 30.06 in - West 4.6 mph - N/A   Clear
1:00 AM 53.6 °F 42.8 °F 67% 30.06 in - NNW 5.8 mph - N/A   Clear
1:30 AM 55.4 °F 41.0 °F 58% 30.06 in - North 5.8 mph - N/A   Clear
2:00 AM 60 °F 37 °F 31% 30.06 in - NNE 9.2 mph - -  
2:00 AM 60.8 °F 37.4 °F 42% 30.06 in - NNE 9.2 mph - N/A   Clear
2:30 AM 60.8 °F 37.4 °F 42% 30.06 in - NE 8.1 mph - N/A   Clear
3:00 AM 61 °F 37 °F 29% 30.06 in 19 mi NE 9.2 mph - -   Partly Cloudy
3:00 AM 60.8 °F 37.4 °F 42% 30.04 in - NE 9.2 mph - N/A   Clear
3:30 AM 62.6 °F 35.6 °F 37% 30.04 in - NE 11.5 mph - N/A   Clear
4:00 AM 62.6 °F 35.6 °F 37% 30.04 in - ENE 10.4 mph - N/A   Clear
4:30 AM 60.8 °F 37.4 °F 42% 30.04 in - NE 11.5 mph - N/A   Clear
5:00 AM 61 °F 36 °F 28% 30.04 in - NE 12.7 mph - -  
5:00 AM 60.8 °F 35.6 °F 39% 30.04 in - NE 12.7 mph - N/A   Clear
5:30 AM 59.0 °F 37.4 °F 45% 30.04 in - ENE 13.8 mph - N/A   Clear
6:00 AM 60 °F 37 °F 30% 30.05 in 19 mi ENE 12.7 mph - -   Partly Cloudy
6:00 AM 59.0 °F 37.4 °F 45% 30.04 in - ENE 12.7 mph - N/A   Clear
6:30 AM 59.0 °F 37.4 °F 45% 30.04 in - ENE 13.8 mph - N/A   Clear
7:00 AM 60.8 °F 37.4 °F 42% 30.04 in - NE 12.7 mph - N/A   Clear
7:30 AM 62.6 °F 37.4 °F 39% 30.04 in - ENE 12.7 mph - N/A   Clear
8:00 AM 62 °F 38 °F 29% 30.06 in - ENE 13.8 mph - -  
8:00 AM 62.6 °F 37.4 °F 39% 30.04 in - ENE 13.8 mph - N/A   Clear
8:30 AM 66.2 °F 39.2 °F 37% 30.04 in - ENE 13.8 mph - N/A   Clear
9:00 AM 69 °F 39 °F 22% 30.06 in 19 mi ENE 12.7 mph - -   Partly Cloudy
9:00 AM 69.8 °F 39.2 °F 33% 30.04 in - ENE 12.7 mph - N/A   Clear
9:30 AM 73.4 °F 41.0 °F 31% 30.04 in - ENE 12.7 mph - N/A   Clear
10:00 AM 75.2 °F 41.0 °F 29% 30.04 in - ENE 11.5 mph - N/A   Clear
10:30 AM 77.0 °F 42.8 °F 29% 30.01 in - NE 9.2 mph - N/A   Clear
11:00 AM 81 °F 42 °F 15% 30.02 in - NE 8.1 mph - -  
12:00 PM 83 °F 39 °F 12% 30.00 in 19 mi North 10.4 mph - -   Partly Cloudy
12:00 PM 82.4 °F 39.2 °F 21% 29.98 in - North 10.4 mph - N/A   Clear
12:30 PM 84.2 °F 41.0 °F 22% 29.98 in - North 6.9 mph - N/A   Clear
1:00 PM 84.2 °F 39.2 °F 20% 29.95 in - NNE 6.9 mph - N/A   Clear
1:30 PM 86.0 °F 37.4 °F 18% 29.95 in - NNE 12.7 mph - N/A   Clear
2:00 PM 84 °F 38 °F 11% 29.94 in - North 9.2 mph - -  
2:00 PM 84.2 °F 39.2 °F 20% 29.95 in - North 9.2 mph - N/A   Clear
2:30 PM 84.2 °F 39.2 °F 20% 29.92 in - NNW 5.8 mph - N/A   Clear
3:00 PM 84 °F 38 °F 11% 29.94 in 19 mi NNW 8.1 mph - -   Partly Cloudy
3:00 PM 84.2 °F 39.2 °F 20% 29.92 in - NNW 8.1 mph - N/A   Clear
3:30 PM 82.4 °F 46.4 °F 28% 29.92 in - WSW 11.5 mph - N/A   Clear
4:00 PM 80.6 °F 44.6 °F 28% 29.92 in - WSW 10.4 mph - N/A   Clear
4:30 PM 80.6 °F 44.6 °F 28% 29.92 in - SW 9.2 mph - N/A   Clear
5:00 PM 80 °F 42 °F 16% 29.94 in - SSW 11.5 mph - -  
5:00 PM 78.8 °F 42.8 °F 28% 29.92 in - SSW 11.5 mph - N/A   Clear
5:30 PM 78.8 °F 42.8 °F 28% 29.92 in - SSW 10.4 mph - N/A   Clear
6:00 PM 77 °F 46 °F 22% 29.94 in 16 mi South 11.5 mph - -   Haze
6:00 PM 77.0 °F 46.4 °F 34% 29.92 in - South 11.5 mph - N/A   Clear
6:30 PM 77.0 °F 42.8 °F 29% 29.95 in - SW 9.2 mph - N/A   Clear
7:00 PM 75.2 °F 44.6 °F 34% 29.89 in 6.2 mi SSE 18.4 mph - N/A Rain Light Rain Showers
7:30 PM 75.2 °F 42.8 °F 31% 29.92 in - SSE 12.7 mph - N/A   Clear
8:00 PM 74 °F 45 °F 24% 29.92 in - SW 8.1 mph - -  
8:00 PM 75.2 °F 44.6 °F 34% 29.92 in - SW 8.1 mph - N/A   Clear
8:30 PM 73.4 °F 46.4 °F 38% 29.92 in 6.2 mi SSW 8.1 mph - N/A   Mostly Cloudy
9:00 PM 73 °F 47 °F 28% 29.91 in 16 mi East 5.8 mph - -   Mostly Cloudy
9:00 PM 73.4 °F 46.4 °F 38% 29.89 in 6.2 mi East 4.6 mph - N/A   Mostly Cloudy
9:30 PM 69.8 °F 48.2 °F 46% 29.92 in - WSW 4.6 mph - N/A   Clear
10:00 PM 71.6 °F 48.2 °F 43% 29.92 in 6.2 mi WSW 6.9 mph - N/A   Mostly Cloudy
10:30 PM 71.6 °F 48.2 °F 43% 29.92 in 6.2 mi South 8.1 mph - N/A Rain Light Rain Showers
11:00 PM 71 °F 48 °F 33% 29.90 in - South 11.5 mph - -  
11:00 PM 71.6 °F 48.2 °F 43% 29.89 in 6.2 mi South 11.5 mph - N/A   Mostly Cloudy
11:30 PM 69.8 °F 50.0 °F 49% 29.89 in - West 5.8 mph - N/A   Clear